Location: Aurora Center
(43.5271°N, 98.5894°W)
Time: 06:23:46
(UTC-05:00)

A-11 Canister half - Visible Passes

Search period start: 19 July 2024 00:00
Search period end: 29 July 2024 00:00
Orbit: 1524 x 1684 km, 47.3° (Epoch: 18 July)

Date Brightness Start Highest point End Pass type
(mag) Time Alt. Az. Time Alt. Az. Time Alt. Az.
19 Jul 10.6 04:47:08 10° S 04:54:19 23° SE 05:01:24 10° E visible
20 Jul 10.6 04:25:42 10° S 04:32:38 21° SE 04:39:26 10° E visible
21 Jul 10.7 04:04:18 10° SSE 04:10:56 20° SE 04:17:28 10° E visible
22 Jul 10.7 03:43:13 11° SSE 03:49:14 19° SE 03:55:28 10° E visible
22 Jul 9.5 05:43:01 10° SW 05:52:49 58° SE 06:02:22 10° ENE visible
23 Jul 10.7 03:22:43 12° SSE 03:27:33 17° SE 03:33:25 10° E visible
23 Jul 9.5 05:21:19 10° SW 05:31:04 56° SE 05:40:35 10° ENE visible
24 Jul 10.6 03:02:09 13° SSE 03:05:52 16° SE 03:11:19 10° E visible
24 Jul 9.5 05:00:27 13° SSW 05:09:18 54° SE 05:18:47 10° ENE visible
25 Jul 10.6 02:41:33 14° SE 02:44:10 15° ESE 02:49:10 10° E visible
25 Jul 9.5 04:39:50 17° SSW 04:47:33 52° SE 04:57:00 10° ENE visible
26 Jul 10.7 02:20:55 13° SE 02:22:29 14° ESE 02:26:56 10° E visible
26 Jul 9.6 04:19:11 22° SSW 04:25:48 50° SE 04:35:12 10° ENE visible
27 Jul 10.7 02:00:14 13° SE 02:00:49 13° ESE 02:04:36 10° E visible
27 Jul 9.6 03:58:30 26° SSW 04:04:03 47° SE 04:13:23 10° ENE visible
28 Jul 10.8 01:39:30 12° ESE 01:39:30 12° ESE 01:42:04 10° ESE visible
28 Jul 9.6 03:37:46 30° S 03:42:18 45° SE 03:51:35 10° ENE visible
28 Jul 9.2 05:36:47 10° WSW 05:46:58 87° NNW 05:56:54 10° ENE visible
